Flag for U.S.A. Weather past 2 weeks in Atascadero, California, U.S.A.

Now
78 °F

Clear.


Feels Like: 78 °F
Forecast: 59 / 91 °F
Wind: 7 mph from Southwest

Location: Paso Robles Municipal Airport

Current Time: Jul 28, 2014 at 10:59:20 PM

Latest Report: Jul 28, 2014 at 9:53 PM


Visibility: 10 mi

Pressure: 30.02 "Hg

Humidity: 31%

Dew point: 45 °F

Location of AtascaderoLocation

Historic Weather in Atascadero — Graph

°F

Atascadero temperature yesterday

Maximum temperature yesterday: 100 °F (at 1:53 PM)
Minimum temperature yesterday: 63 °F (at 3:53 AM)
Average temperature yesterday: 78 °F

Past Weeks' High & Low Weather Summary

 TemperatureHumidityPressure
High100 °F (Jul 24, 4:53 PM)87% (Jul 23, 5:53 AM)30.13 "Hg (Jul 23, 5:53 AM)
Low55 °F (Jul 23, 5:53 AM)12% (Jul 27, 12:53 PM)29.75 "Hg (Jul 24, 5:53 PM)
Average73 °F53%29.95 "Hg
* Reported Jul 13 9:53 PM — Jul 28 9:53 PM, Atascadero, Weather by CustomWeather, © 2014

Note: Actual official high and low records may vary slightly from our data, if they occured in-between our weather recording intervals... More about our weather records

Advertising

Atascadero weather history for previous 24 hours

 ConditionsComfort  
Time TempWeatherWind HumidityBarometerVisibility
9:53 PM
Jul 28
78 °FClear.7 mph31%30.02 "Hg10 mi
8:53 PM80 °FSunny.9 mph31%30.00 "Hg10 mi
7:53 PM83 °FSunny.13 mph26%29.98 "Hg10 mi
6:53 PM88 °FSunny.17 mph20%29.96 "Hg10 mi
5:53 PM94 °FSunny.14 mph16%29.96 "Hg10 mi
4:53 PM94 °FSunny.14 mph17%29.97 "Hg10 mi
3:53 PM94 °FSunny.16 mph14%29.99 "Hg10 mi
2:53 PM93 °FSunny.17 mph15%30.00 "Hg10 mi
1:53 PM92 °FSunny.14 mph13%30.02 "Hg10 mi
12:53 PM91 °FSunny.12 mph15%30.03 "Hg10 mi
11:53 AM89 °FSunny.12 mph22%30.03 "Hg10 mi
10:53 AM84 °FSunny.7 mph29%30.04 "Hg10 mi
9:53 AM79 °FSunny.6 mph35%30.03 "Hg10 mi
8:53 AM74 °FSunny.No wind52%30.03 "Hg10 mi
7:53 AM69 °FSunny.No wind63%30.02 "Hg10 mi
6:53 AM67 °FClear.No wind73%30.01 "Hg10 mi
5:53 AM67 °FPassing clouds.3 mph71%29.99 "Hg10 mi
4:53 AM68 °FLight rain. Passing clouds.No wind65%29.99 "Hg10 mi
3:53 AM68 °FPassing clouds.No wind59%29.98 "Hg10 mi
2:53 AM69 °FClear.5 mph57%29.97 "Hg10 mi
1:53 AM69 °FClear.6 mph55%29.97 "Hg10 mi
12:53 AM70 °FClear.8 mph53%29.98 "Hg10 mi
11:53 PM
Jul 27
73 °FClear.3 mph41%29.98 "Hg10 mi
10:53 PM73 °FClear.5 mph43%29.98 "Hg10 mi
Weather by CustomWeather, © 2014

See weather overviewHow to use our weather pages